Regional Weather Roundup
Issued by NWS Little Rock, AR

Home | Current Version | Previous Version | Text Only | Print | Product List | Glossary Off
Versions: 1 2 3 4 5 6 7 8 9 10 11 12 13 14 15 16 17 18 19 20 21 22 23 24 25 26 27 28 29 30 31 32 33 34 35 36 37 38 39 40 41 42 43 44 45 46 47 48 49 50

000
ASUS44 KLZK 060605
RWRLZK

WEATHER ROUNDUP FOR ARKANSAS
NATIONAL WEATHER SERVICE LITTLE ROCK AR
1200 AM CST SAT FEB 06 2016

NOTE: "FAIR" INDICATES FEW OR NO CLOUDS BELOW 12,000 FEET WITH NO
SIGNIFICANT WEATHER AND/OR OBSTRUCTIONS TO VISIBILITY.

ARZ001-003-010-029-060700-
NORTHWEST ARKANSAS

CITY           SKY/WX    TMP DP  RH WIND       PRES   REMARKS
FAYETTEVILLE   PTCLDY    26  20  77 CALM      30.31F
6HR MIN TEMP:  26; 6HR MAX TEMP:  43;

FORT SMITH     CLOUDY    37  26  64 NE5       30.32F
6HR MIN TEMP:  37; 6HR MAX TEMP:  51;

HARRISON       CLEAR     34  16  47 SE3       30.31S
6HR MIN TEMP:  34; 6HR MAX TEMP:  46;

BENTONVILLE    CLEAR    N/A N/A N/A S3        30.31S
ROGERS         PTCLDY    35  17  47 SE6       30.31R WCI  30
6HR MIN TEMP:  35; 6HR MAX TEMP:  44;

SILOAM SPGS    PTCLDY    37  14  38 SE6       30.31S
6HR MIN TEMP:  36; 6HR MAX TEMP:  46;

HIGHFILL       CLEAR     35  18  49 S5        30.30S WCI  31
6HR MIN TEMP:  34; 6HR MAX TEMP:  45;

$$

ARZ004-005-016-060700-
NORTH CENTRAL ARKANSAS

CITY           SKY/WX    TMP DP  RH WIND       PRES   REMARKS
BATESVILLE     CLEAR     43  18  36 S6        30.37S
6HR MIN TEMP:  41; 6HR MAX TEMP:  48;

FLIPPIN        CLEAR     32  18  55 CALM      30.31F
6HR MIN TEMP:  32; 6HR MAX TEMP:  48;

MTN HOME       PTCLDY    37  16  42 S5        30.32S
6HR MIN TEMP:  37; 6HR MAX TEMP:  47;

$$

ARZ040-041-060700-
WEST CENTRAL ARKANSAS

CITY           SKY/WX    TMP DP  RH WIND       PRES   REMARKS
MENA           PTCLDY    32  25  74 CALM      30.32F
MOUNT IDA      CLEAR     28  20  71 CALM      30.31F
6HR MIN TEMP:  28; 6HR MAX TEMP:  46;

$$

ARZ009-017-025-026-028-060700-
NORTHEAST ARKANSAS

CITY           SKY/WX    TMP DP  RH WIND       PRES   REMARKS
CORNING        FAIR      34  28  80 SW7       30.36S WCI  28
JONESBORO      CLEAR     31  25  78 CALM      30.37S
6HR MIN TEMP:  31; 6HR MAX TEMP:  44;

NEWPORT        CLEAR     34  25  70 SW8       30.38S WCI  27
6HR MIN TEMP:  33; 6HR MAX TEMP:  42;

WALNUT RIDGE   CLEAR     34  25  69 SW6       30.37S WCI  29
6HR MIN TEMP:  32; 6HR MAX TEMP:  45;

BLYTHEVILLE    CLEAR     38  26  62 SW7       30.38S
6HR MIN TEMP:  37; 6HR MAX TEMP:  46;

$$

ARZ022-023-033-042-044-060700-
CENTRAL ARKANSAS

CITY           SKY/WX    TMP DP  RH WIND       PRES   REMARKS
LITTLE ROCK    MOCLDY    34  22  61 E3        30.38S
6HR MIN TEMP:  33; 6HR MAX TEMP:  49;

N LITTLE ROCK  MOCLDY    41  22  48 S6        30.38S
6HR MIN TEMP:  40; 6HR MAX TEMP:  48;

JACKSONVILLE   CLEAR     28  22  79 CALM      30.36F
6HR MIN TEMP:  28; 6HR MAX TEMP:  48;

SEARCY         CLEAR     28  26  92 CALM      30.40R
6HR MIN TEMP:  27; 6HR MAX TEMP:  44;

HOT SPRINGS    PTCLDY    31  21  66 CALM      30.35F
6HR MIN TEMP:  29; 6HR MAX TEMP:  50;

RUSSELLVILLE   CLEAR     32  22  66 CALM      30.34F
6HR MIN TEMP:  31; 6HR MAX TEMP:  44;

CLINTON        FAIR      27  23  86 CALM      30.38S
$$

ARZ036-060700-
EAST ARKANSAS

CITY           SKY/WX    TMP DP  RH WIND       PRES   REMARKS
WEST MEMPHIS   CLEAR     33  27  78 S5        30.38S WCI  29
6HR MIN TEMP:  33; 6HR MAX TEMP:  45;

$$

ARZ050-053-066-070-073-060700-
SOUTHWEST ARKANSAS

CITY           SKY/WX    TMP DP  RH WIND       PRES   REMARKS
ARKADELPHIA    FAIR      28  27  96 CALM      30.37F
6HR MIN TEMP:  28; 6HR MAX TEMP:  45;

CAMDEN         CLEAR     28  23  80 CALM      30.38F
TEXARKANA      CLEAR     38  20  48 E5        30.34F
6HR MIN TEMP:  34; 6HR MAX TEMP:  48;

EL DORADO      CLEAR     34  26  72 CALM      30.37F
6HR MIN TEMP:  32; 6HR MAX TEMP:  48;

DE QUEEN       PTCLDY    29  26  89 CALM      30.32F
6HR MIN TEMP:  29; 6HR MAX TEMP:  49;

$$

ARZ056-057-069-060700-
SOUTHEAST ARKANSAS

CITY           SKY/WX    TMP DP  RH WIND       PRES   REMARKS
PINE BLUFF     PTCLDY    35  27  72 CALM      30.39S
6HR MIN TEMP:  33; 6HR MAX TEMP:  46;

STUTTGART      PTCLDY    39  23  52 S6        30.39S
6HR MIN TEMP:  39; 6HR MAX TEMP:  46;

MONTICELLO     CLOUDY    39  26  59 SE3       30.38F
6HR MIN TEMP:  36; 6HR MAX TEMP:  48;


$$





USA.gov is the U.S. government's official web portal to all federal, state and local government web resources and services.